#timestamp,LO_Frequency,Hit 
1503892815.3,286046998.1,N
1503892835.2,286047000.1,N
1503892855.0,286047000.3,N
1503892855.9,286047000.3,N
1503892875.7,286047004.2,N
1503892895.6,286047001.4,N
1503892915.4,286047007.5,P
1503892935.2,286047004.4,N
1503892955.1,286047000.1,N
1503892956.0,286047000.1,N
1503892975.8,286047001.7,N
1503892995.6,286047002.3,N
1503893015.5,286047002.6,N
1503893035.3,286047002.5,N
1503893055.1,286047001.9,N
1503893075.9,286047001.9,N
1503893095.7,286047001.5,N
1503893115.5,286047002.0,N
1503893135.4,286047002.5,N
1503893155.2,286047000.1,N
1503893175.0,286047000.5,N
1503893175.9,286047000.5,N
1503893195.8,286047000.0,N
1503893215.6,286047001.1,N
1503893235.4,286047001.4,N
1503893255.2,286047002.5,N
1503893275.1,286047000.5,N
1503893276.0,286047000.5,N
1503893295.8,286047000.7,N
1503893315.6,286047002.7,N
1503893335.5,286047007.3,P
1503893355.3,286047007.4,N
1503893375.2,286047003.3,N
1503893395.9,286047003.0,N
1503893415.7,286047003.6,N
1503893435.5,286047001.4,N
1503893455.4,286047003.9,N
1503893475.2,286047007.0,P
1503893495.0,286047002.9,N
1503893496.0,286047002.9,N
1503893515.8,286047003.0,N
1503893535.6,286047003.2,N
1503893555.4,286047000.5,N
1503893575.3,286046998.8,N
1503893595.1,286046997.0,N
1503893615.8,286046999.1,N
1503893635.7,286047000.3,N
1503893655.5,286046999.7,N
1503893675.3,286046998.2,N
1503893695.2,286047000.6,N
1503893715.9,286047002.4,N
1503893735.7,286047002.2,N
1503893755.6,286046999.9,N
1503893775.4,286046999.3,N
1503893795.2,286046997.0,N
1503893815.0,286046996.7,N
1503893816.0,286046996.7,N
1503893835.8,286046998.1,N
1503893855.6,286046997.1,N
1503893875.4,286047000.7,N
1503893895.3,286046998.2,N
1503893915.1,286046998.9,N
1503893935.8,286046996.5,N
1503893955.7,286047002.6,N
1503893975.5,286047000.5,N
1503893995.3,286046998.2,N
1503894015.2,286046998.3,N
1503894035.9,286046996.6,N
1503894055.7,286047000.0,N
1503894075.6,286046999.7,N
1503894095.4,286047001.3,N
1503894115.2,286047002.0,N
1503894135.0,286047000.0,N
1503894136.0,286047000.0,N
1503894155.8,286047002.1,N
1503894175.6,286047000.0,N
1503894195.4,286047000.9,N
1503894215.3,286047000.3,N
1503894235.1,286047000.7,N
1503894255.8,286047000.7,N
1503894275.7,286047000.1,N
1503894295.5,286047000.5,N
1503894315.3,286047003.8,N
1503894335.2,286047007.5,P
1503894355.9,286047005.2,N
1503894375.7,286047003.6,N
1503894395.6,286047001.4,N
1503894415.4,286047001.9,N
1503894435.2,286047002.5,N
1503894455.1,286047001.7,N
1503894456.0,286047001.7,N
1503894475.8,286047001.6,N
1503894495.6,286047002.8,N
1503894515.5,286047001.5,N
1503894535.3,286047004.2,N
1503894555.1,286047001.7,N
1503894575.8,286047003.0,N
1503894595.7,286047001.3,N
1503894615.5,286047004.1,N
1503894635.3,286047004.6,N
1503894655.2,286047007.3,P
1503894675.0,286047005.8,N
1503894675.9,286047005.8,P
1503894695.8,286047005.8,P
1503894715.6,286046996.6,P
1503894735.4,286047002.8,N
1503894755.3,286046999.4,N
1503894775.1,286046998.3,N
1503894795.8,286046998.5,N
1503894815.7,286046998.3,N
1503894835.5,286047000.4,N
1503894855.3,286046999.7,N
1503894875.2,286047002.3,N
1503894895.9,286047005.3,N
1503894915.7,286047001.4,N
1503894935.6,286047000.8,N
1503894955.4,286047001.0,N
1503894975.2,286047000.3,N
1503894995.0,286047000.7,N
1503894996.0,286047000.7,N
1503895015.8,286047000.7,N
1503895035.6,286047002.8,N
1503895055.4,286047000.2,N
1503895075.3,286046998.6,N
1503895095.1,286046998.3,N
1503895115.8,286046998.8,N
1503895135.7,286047001.4,N
1503895155.5,286047000.6,N
1503895175.3,286047002.4,N
1503895195.2,286047002.4,N
1503895215.9,286047005.5,N
1503895235.7,286047005.8,N
1503895255.6,286047005.4,N
1503895275.4,286047005.5,N
1503895295.2,286047003.6,N
1503895315.0,286047002.6,N
1503895316.0,286047002.6,N
1503895335.8,286047002.0,N
1503895355.6,286047001.7,N
1503895375.4,286047006.0,N
1503895395.3,286047002.0,N
1503895415.1,286047000.5,N
1503895435.8,286047003.2,N
1503895455.7,286047000.1,N
1503895475.5,286047003.9,N
1503895495.3,286047004.2,N
1503895515.2,286047003.9,N
1503895535.9,286047002.3,N
1503895555.7,286047001.0,N
1503895575.6,286047004.3,N
1503895595.4,286047004.5,N
1503895615.2,286047005.5,N
1503895635.1,286047001.6,N
1503895636.0,286047001.6,N
1503895655.8,286046999.7,N
1503895675.6,286047002.6,N
1503895695.5,286046999.9,N
1503895715.3,286046998.8,N
1503895735.1,286047003.9,N
1503895755.9,286047003.9,N
1503895775.7,286046999.7,N
1503895795.5,286047000.2,N
1503895815.3,286047002.1,N
1503895835.2,286047001.9,N
1503895855.0,286047000.5,N
1503895855.9,286047000.5,N
1503895875.7,286047000.3,N
1503895895.6,286047000.2,N
1503895915.4,286046999.3,N
1503895935.2,286046997.0,N
1503895955.1,286046999.1,N
1503895956.0,286046999.1,N
1503895975.8,286047001.0,N
1503895995.6,286047002.0,N
1503896015.5,286047000.1,N
1503896035.3,286046999.1,N
1503896055.1,286046998.6,N
1503896075.9,286046999.0,N
1503896095.7,286046998.7,N
1503896115.5,286047000.0,N
1503896135.3,286047002.7,N
1503896155.2,286047002.7,N
1503896175.0,286047002.6,N
1503896175.9,286047002.6,N
1503896195.7,286047000.5,N
1503896215.6,286047001.0,N
1503896235.4,286047000.5,N
1503896255.2,286047000.9,N
1503896275.1,286047002.3,N
1503896276.0,286047002.3,N
1503896295.8,286047004.1,N
1503896315.6,286047006.5,P
1503896335.5,286047008.8,P
1503896355.3,286047005.6,N
1503896375.1,286047004.0,N
1503896395.9,286047004.2,N
